Waterville, ME

9:21 PM EDT on August 20, 2017 (GMT -0400)
Waterville Lafleur

Weather History for KWVL - November, 2013

Change the Weather History Date:

Monday, November 18, 2013

  Actual Average Record
Temperature  
Mean Temperature 51 °F -  
Max Temperature 60 °F 46 °F 67 °F (1987)
Min Temperature 42 °F 27 °F 14 °F (1997)
Degree Days  
Heating Degree Days 14    
Growing Degree Days 1 (Base 50)    
Moisture  
Dew Point 44 °F    
Average Humidity 73    
Maximum Humidity 100    
Minimum Humidity 43    
Precipitation  
Precipitation 0.47 in - - ()
Sea Level Pressure  
Sea Level Pressure 29.54 in    
Wind  
Wind Speed 6 mph (SSW)    
Max Wind Speed 15 mph    
Max Gust Speed 23 mph    
Visibility 7 miles    
Events      
Averages and records for this station are not official NWS values.
T = Trace of Precipitation, MM = Missing Value Source: NWS Daily Summary

Daily Weather History Graph

Daily Weather History Graph

Search for Another Location

Airport or City:

Trip Planner

Search our weather history database for the weather conditions in past years. The results will help you decide how hot, cold, wet, or windy it might be!

Date:

Astronomy

Nov. 18, 2013 Rise Set
Actual Time 6:39 AM EST 4:08 PM EST
Civil Twilight 6:07 AM EST 4:39 PM EST
Nautical Twilight 5:32 AM EST 5:15 PM EST
Astronomical Twilight 4:57 AM EST 5:49 PM EST
Moon 5:07 PM EST (11/18) 7:25 AM EST (11/18)
Length of Visible Light 10h 32m
Length of Day
9h 28m
Full, 99% of the Moon is Illuminated
Nov 18
Full
Nov 25
Last Quarter
Dec 2
New
Dec 9
First Quarter
Dec 17
Full

Hourly Weather History & Observations

Time (EST) Temp. Windchill Dew Point Humidity Pressure Visibility Wind Dir Wind Speed Gust Speed Precip Events Conditions
12:15 AM 42.8 °F - 41.0 °F 93% 29.90 in 1.2 mi Calm Calm - 0.01 in   Overcast
12:35 AM 44.6 °F - 42.8 °F 93% 29.87 in 1.2 mi Calm Calm - 0.01 in   Overcast
12:55 AM 46.4 °F 45.2 °F 44.6 °F 93% 29.85 in 1.2 mi East 3.5 mph - 0.01 in   Overcast
1:15 AM 48.2 °F - 46.4 °F 93% 29.84 in 2.5 mi Calm Calm - N/A   Overcast
1:35 AM 48.2 °F - 46.4 °F 93% 29.82 in 1.5 mi Calm Calm - N/A   Overcast
1:55 AM 50.0 °F - 48.2 °F 94% 29.80 in 2.0 mi SSE 4.6 mph - 0.01 in   Overcast
2:15 AM 50.0 °F - 48.2 °F 94% 29.79 in 1.2 mi Calm Calm - N/A   Overcast
2:35 AM 51.8 °F - 48.2 °F 88% 29.76 in 1.2 mi SSE 3.5 mph - N/A   Overcast
2:55 AM 51.8 °F - 50.0 °F 94% 29.74 in 1.5 mi Calm Calm - N/A   Overcast
3:15 AM 51.8 °F - 51.8 °F 100% 29.72 in 2.0 mi South 5.8 mph - N/A   Overcast
3:35 AM 53.6 °F - 51.8 °F 94% 29.71 in 1.8 mi SSE 4.6 mph - N/A   Overcast
3:55 AM 53.6 °F - 51.8 °F 94% 29.69 in 2.5 mi SSE 5.8 mph - N/A   Overcast
4:15 AM 53.6 °F - 51.8 °F 94% 29.65 in 2.5 mi SE 4.6 mph - N/A   Overcast
4:35 AM 53.6 °F - 51.8 °F 94% 29.63 in 4.0 mi SSE 5.8 mph - N/A   Overcast
4:55 AM 53.6 °F - 51.8 °F 94% 29.62 in 5.0 mi South 8.1 mph - N/A   Overcast
5:15 AM 53.6 °F - 53.6 °F 100% 29.60 in 6.0 mi South 6.9 mph - N/A   Overcast
5:35 AM 53.6 °F - 53.6 °F 100% 29.58 in 3.0 mi SSE 6.9 mph - N/A   Overcast
5:55 AM 53.6 °F - 53.6 °F 100% 29.56 in 4.0 mi South 5.8 mph - N/A   Overcast
6:15 AM 53.6 °F - 53.6 °F 100% 29.54 in 5.0 mi SSE 5.8 mph - N/A   Overcast
6:35 AM 53.6 °F - 53.6 °F 100% 29.51 in 3.0 mi SSE 8.1 mph - N/A   Overcast
6:55 AM 55.4 °F - 53.6 °F 94% 29.50 in 1.8 mi SSE 9.2 mph - N/A   Overcast
7:15 AM 55.4 °F - 53.6 °F 94% 29.48 in 3.0 mi South 5.8 mph 16.1 mph 0.01 in   Overcast
7:35 AM 55.4 °F - 53.6 °F 94% 29.46 in 9.0 mi South 6.9 mph - 0.04 in   Overcast
7:55 AM 55.4 °F - 53.6 °F 94% 29.43 in 3.0 mi SSE 6.9 mph - 0.20 in   Overcast
8:15 AM 55.4 °F - 55.4 °F 100% 29.44 in 4.0 mi South 9.2 mph - 0.16 in   Overcast
8:35 AM 57.2 °F - 55.4 °F 94% 29.44 in 7.0 mi South 11.5 mph 21.9 mph 0.22 in   Overcast
8:55 AM 57.2 °F - 55.4 °F 94% 29.45 in 5.0 mi SSW 13.8 mph 23.0 mph 0.24 in   Overcast
9:15 AM 57.2 °F - 55.4 °F 94% 29.43 in 10.0 mi South 8.1 mph - N/A   Mostly Cloudy
9:35 AM 57.2 °F - 55.4 °F 94% 29.43 in 10.0 mi South 5.8 mph - N/A   Overcast
9:55 AM 57.2 °F - 53.6 °F 88% 29.43 in 10.0 mi South 6.9 mph - N/A   Overcast
10:15 AM 57.2 °F - 55.4 °F 94% 29.44 in 10.0 mi SSW 6.9 mph - 0.01 in   Overcast
10:35 AM 57.2 °F - 55.4 °F 94% 29.43 in 10.0 mi SSW 6.9 mph - 0.01 in   Overcast
10:55 AM 57.2 °F - 53.6 °F 88% 29.42 in 10.0 mi SSW 12.7 mph 17.3 mph 0.01 in   Overcast
11:15 AM 59.0 °F - 53.6 °F 82% 29.42 in 10.0 mi SSW 15.0 mph 23.0 mph N/A   Scattered Clouds
11:35 AM 59.0 °F - 51.8 °F 77% 29.42 in 10.0 mi SSW 13.8 mph 21.9 mph N/A   Clear
11:55 AM 59.0 °F - 48.2 °F 67% 29.42 in 10.0 mi SW 13.8 mph - N/A   Clear
12:15 PM 60.8 °F - 48.2 °F 63% 29.43 in 10.0 mi SW 12.7 mph - N/A   Clear
12:35 PM 60.8 °F - 48.2 °F 63% 29.43 in 10.0 mi SW 13.8 mph 18.4 mph N/A   Clear
12:55 PM 60.8 °F - 46.4 °F 59% 29.43 in 10.0 mi SW 10.4 mph - N/A   Scattered Clouds
1:15 PM 60.8 °F - 46.4 °F 59% 29.44 in 10.0 mi WSW 10.4 mph - N/A   Mostly Cloudy
1:35 PM 59.0 °F - 44.6 °F 59% 29.43 in 10.0 mi SW 11.5 mph - N/A   Mostly Cloudy
1:55 PM 60.8 °F - 44.6 °F 55% 29.44 in 10.0 mi SW 11.5 mph - N/A   Mostly Cloudy
2:15 PM 60.8 °F - 44.6 °F 55% 29.44 in 10.0 mi SW 10.4 mph 17.3 mph N/A   Partly Cloudy
2:35 PM 60.8 °F - 42.8 °F 52% 29.45 in 10.0 mi SW 12.7 mph 19.6 mph N/A   Clear
2:55 PM 60.8 °F - 41.0 °F 48% 29.45 in 10.0 mi SW 12.7 mph 19.6 mph N/A   Scattered Clouds
3:15 PM 60.8 °F - 39.2 °F 45% 29.45 in 10.0 mi SW 13.8 mph 21.9 mph N/A   Mostly Cloudy
3:35 PM 57.2 °F - 39.2 °F 51% 29.46 in 10.0 mi SSW 10.4 mph - N/A   Scattered Clouds
3:55 PM 57.2 °F - 39.2 °F 51% 29.46 in 10.0 mi SSW 10.4 mph - N/A   Scattered Clouds
4:15 PM 57.2 °F - 37.4 °F 48% 29.47 in 10.0 mi SSW 11.5 mph - N/A   Scattered Clouds
4:35 PM 55.4 °F - 37.4 °F 51% 29.48 in 10.0 mi SSW 8.1 mph - N/A   Mostly Cloudy
4:55 PM 55.4 °F - 37.4 °F 51% 29.49 in 10.0 mi SSW 5.8 mph - N/A   Partly Cloudy
5:15 PM 53.6 °F - 37.4 °F 54% 29.50 in 10.0 mi SSW 4.6 mph - N/A   Clear
5:35 PM 51.8 °F - 37.4 °F 58% 29.50 in 10.0 mi SSW 5.8 mph - N/A   Clear
5:55 PM 51.8 °F - 37.4 °F 58% 29.51 in 10.0 mi SSW 3.5 mph - N/A   Clear
6:15 PM 50.0 °F - 37.4 °F 62% 29.51 in 10.0 mi SW 3.5 mph - N/A   Clear
6:35 PM 51.8 °F - 37.4 °F 58% 29.51 in 10.0 mi WSW 9.2 mph - N/A   Scattered Clouds
6:55 PM 51.8 °F - 35.6 °F 54% 29.52 in 10.0 mi WSW 6.9 mph - N/A   Partly Cloudy
7:15 PM 51.8 °F - 35.6 °F 54% 29.53 in 10.0 mi WSW 6.9 mph - N/A   Clear
7:35 PM 50.0 °F - 33.8 °F 54% 29.53 in 10.0 mi SSW 4.6 mph - N/A   Clear
7:55 PM 48.2 °F - 33.8 °F 58% 29.51 in 10.0 mi WNW 5.8 mph - N/A   Clear
8:15 PM 50.0 °F - 33.8 °F 54% 29.51 in 10.0 mi WNW 4.6 mph - N/A   Clear
8:35 PM 46.4 °F 45.2 °F 33.8 °F 62% 29.51 in 10.0 mi WNW 3.5 mph - N/A   Mostly Cloudy
8:55 PM 48.2 °F - 35.6 °F 62% 29.51 in 10.0 mi West 4.6 mph - N/A   Overcast
9:15 PM 50.0 °F - 32.0 °F 50% 29.50 in 10.0 mi West 8.1 mph - N/A   Overcast
9:35 PM 50.0 °F - 30.2 °F 47% 29.51 in 10.0 mi West 6.9 mph - N/A   Overcast
9:55 PM 48.2 °F - 30.2 °F 50% 29.51 in 10.0 mi SW 4.6 mph - N/A   Overcast
10:15 PM 48.2 °F - 30.2 °F 50% 29.51 in 10.0 mi SW 3.5 mph - N/A   Overcast
10:35 PM 48.2 °F - 30.2 °F 50% 29.51 in 10.0 mi Calm Calm - N/A   Overcast
10:55 PM 48.2 °F - 28.4 °F 46% 29.52 in 10.0 mi WSW 12.7 mph 16.1 mph N/A   Mostly Cloudy
11:15 PM 48.2 °F - 28.4 °F 46% 29.52 in 10.0 mi West 10.4 mph 16.1 mph N/A   Overcast
11:35 PM 48.2 °F - 26.6 °F 43% 29.52 in 10.0 mi West 10.4 mph 18.4 mph N/A   Overcast
11:55 PM 46.4 °F 41.9 °F 28.4 °F 50% 29.52 in 10.0 mi WSW 9.2 mph - N/A   Overcast